Вернуться в каталог

KENT RIDGE 1

АктивенНаукаVLEO
NORAD 41167·PAYLOAD·🇸🇬 Singapore

Запущен Dec 16, 2015 с Satish Dhawan Space Centre

Loading…

Ближайшие Пролёты (ближайшие 24 часа)

TLE

СвежийSource: Space-Track

Эпоха: Sep 14, 2026, 19:11 UTC

1 41167U 15077B   26257.79950436  .00003486  00000-0  11027-3 0  9999
2 41167  14.9804 319.3047 0008144  64.6196 295.4969 15.23593158594782

Отслеживайте KENT RIDGE 1 в реальном времени с AllMySat

Download on the App Store